Time,TemperatureF,DewpointF,PressureIn,WindDirection,WindDirectionDegrees,WindSpeedMPH,WindSpeedGustMPH,Humidity,HourlyPrecipIn,Conditions,Clouds,dailyrainin,SoftwareType,DateUTC
2013-06-05 00:01:00,56.8,50.0,29.94,ESE,112,0.0,0.0,78,0.00,,,0.00,WUHU21623XXSP,2013-06-05 04:01:00,
2013-06-05 00:02:00,56.8,50.0,29.95,SE,135,0.0,0.0,78,0.00,,,0.00,WUHU21623XXSP,2013-06-05 04:02:00,
2013-06-05 00:07:00,56.5,50.0,29.95,SE,135,0.0,0.0,79,0.00,,,0.00,WUHU21623XXSP,2013-06-05 04:07:00,
2013-06-05 00:12:00,56.5,49.6,29.95,ENE,67,0.0,0.0,78,0.00,,,0.00,WUHU21623XXSP,2013-06-05 04:12:00,
2013-06-05 00:17:00,56.3,49.5,29.95,ENE,67,0.0,0.0,78,0.00,,,0.00,WUHU21623XXSP,2013-06-05 04:17:00,
2013-06-05 00:22:00,56.1,49.3,29.95,ENE,67,0.0,0.0,78,0.00,,,0.00,WUHU21623XXSP,2013-06-05 04:22:00,
2013-06-05 00:27:00,55.9,49.1,29.95,ENE,67,0.0,0.0,78,0.00,,,0.00,WUHU21623XXSP,2013-06-05 04:27:00,
2013-06-05 00:32:00,55.9,49.5,29.95,ENE,67,0.0,0.0,79,0.00,,,0.00,WUHU21623XXSP,2013-06-05 04:32:00,
2013-06-05 00:37:00,55.9,49.8,29.95,ENE,67,0.0,0.0,80,0.00,,,0.00,WUHU21623XXSP,2013-06-05 04:37:00,
2013-06-05 00:40:00,55.9,49.9,29.94,ENE,68,0.0,0.0,80,0.00,,,0.00,WUHU21623XXSP,2013-06-05 04:40:00,
2013-06-05 00:42:00,55.9,49.8,29.94,ENE,67,0.0,0.0,80,0.00,,,0.00,WUHU21623XXSP,2013-06-05 04:42:00,
2013-06-05 00:47:00,55.9,49.8,29.94,ENE,67,0.0,0.0,80,0.00,,,0.00,WUHU21623XXSP,2013-06-05 04:47:00,
2013-06-05 00:52:00,55.9,49.8,29.94,ENE,67,0.0,0.0,80,0.00,,,0.00,WUHU21623XXSP,2013-06-05 04:52:00,
2013-06-05 00:57:00,55.9,49.8,29.95,ENE,67,0.0,0.0,80,0.00,,,0.00,WUHU21623XXSP,2013-06-05 04:57:00,
2013-06-05 01:02:00,55.9,49.8,29.95,ENE,67,0.0,0.0,80,0.00,,,0.00,WUHU21623XXSP,2013-06-05 05:02:00,
2013-06-05 01:07:00,55.8,50.0,29.95,ENE,67,0.0,0.0,81,0.00,,,0.00,WUHU21623XXSP,2013-06-05 05:07:00,
2013-06-05 01:12:00,55.9,50.1,29.95,ENE,67,0.0,0.0,81,0.00,,,0.00,WUHU21623XXSP,2013-06-05 05:12:00,
2013-06-05 01:17:00,55.9,50.1,29.95,ENE,67,0.0,0.0,81,0.00,,,0.00,WUHU21623XXSP,2013-06-05 05:17:00,
2013-06-05 01:22:00,55.9,50.1,29.95,ENE,67,0.0,0.0,81,0.00,,,0.00,WUHU21623XXSP,2013-06-05 05:22:00,
2013-06-05 01:27:00,55.9,50.1,29.94,ENE,67,0.0,0.0,81,0.00,,,0.00,WUHU21623XXSP,2013-06-05 05:27:00,
2013-06-05 01:32:00,55.8,50.0,29.94,ENE,67,0.0,0.0,81,0.00,,,0.00,WUHU21623XXSP,2013-06-05 05:32:00,
2013-06-05 01:37:00,55.8,50.0,29.94,ENE,67,0.0,0.0,81,0.00,,,0.00,WUHU21623XXSP,2013-06-05 05:37:00,
2013-06-05 01:40:00,55.8,50.1,29.94,ENE,68,0.0,0.0,81,0.00,,,0.00,WUHU21623XXSP,2013-06-05 05:40:00,
2013-06-05 01:42:00,55.8,50.0,29.94,ENE,67,0.0,0.0,81,0.00,,,0.00,WUHU21623XXSP,2013-06-05 05:42:00,
2013-06-05 01:47:00,55.8,50.0,29.94,ENE,67,0.0,0.0,81,0.00,,,0.00,WUHU21623XXSP,2013-06-05 05:47:00,
2013-06-05 01:52:00,55.8,50.0,29.94,NW,315,0.0,0.0,81,0.00,,,0.00,WUHU21623XXSP,2013-06-05 05:52:00,
2013-06-05 01:57:00,55.9,50.1,29.94,NW,315,0.0,0.0,81,0.00,,,0.00,WUHU21623XXSP,2013-06-05 05:57:00,
2013-06-05 02:02:00,55.9,50.1,29.94,NW,315,0.0,0.0,81,0.00,,,0.00,WUHU21623XXSP,2013-06-05 06:02:00,
2013-06-05 02:07:00,56.1,50.0,29.94,NW,315,0.0,0.0,80,0.00,,,0.00,WUHU21623XXSP,2013-06-05 06:07:00,
2013-06-05 02:12:00,56.3,50.2,29.94,NW,315,0.0,0.0,80,0.00,,,0.00,WUHU21623XXSP,2013-06-05 06:12:00,
2013-06-05 02:17:00,56.5,50.4,29.95,NW,315,0.0,0.0,80,0.00,,,0.00,WUHU21623XXSP,2013-06-05 06:17:00,
2013-06-05 02:22:00,56.5,50.0,29.94,NW,315,0.0,0.0,79,0.00,,,0.00,WUHU21623XXSP,2013-06-05 06:22:00,
2013-06-05 02:27:00,56.8,50.4,29.95,NW,315,0.0,0.0,79,0.00,,,0.00,WUHU21623XXSP,2013-06-05 06:27:00,
2013-06-05 02:32:00,56.8,50.4,29.95,NW,315,0.0,0.0,79,0.00,,,0.00,WUHU21623XXSP,2013-06-05 06:32:00,
2013-06-05 02:37:00,57.0,50.5,29.95,NNW,337,0.0,0.0,79,0.00,,,0.00,WUHU21623XXSP,2013-06-05 06:37:00,
2013-06-05 02:40:00,57.0,50.3,29.95,NNW,338,0.0,0.0,78,0.00,,,0.00,WUHU21623XXSP,2013-06-05 06:40:00,
2013-06-05 02:42:00,57.0,50.2,29.96,NNW,337,0.0,0.0,78,0.00,,,0.00,WUHU21623XXSP,2013-06-05 06:42:00,
2013-06-05 02:47:00,57.0,50.2,29.95,NNW,337,0.0,0.0,78,0.00,,,0.00,WUHU21623XXSP,2013-06-05 06:47:00,
2013-06-05 02:52:00,57.0,50.2,29.95,NNW,337,0.0,0.0,78,0.00,,,0.00,WUHU21623XXSP,2013-06-05 06:52:00,
2013-06-05 02:57:00,57.2,50.4,29.95,NNW,337,0.0,0.0,78,0.00,,,0.00,WUHU21623XXSP,2013-06-05 06:57:00,
2013-06-05 03:02:00,57.4,50.5,29.95,NNW,337,0.0,0.0,78,0.00,,,0.00,WUHU21623XXSP,2013-06-05 07:02:00,
2013-06-05 03:07:00,57.4,50.5,29.95,NNW,337,0.0,0.0,78,0.00,,,0.00,WUHU21623XXSP,2013-06-05 07:07:00,
2013-06-05 03:12:00,57.4,50.5,29.95,NNW,337,0.0,0.0,78,0.00,,,0.00,WUHU21623XXSP,2013-06-05 07:12:00,
2013-06-05 03:17:00,57.4,50.9,29.95,NNW,337,0.0,0.0,79,0.00,,,0.00,WUHU21623XXSP,2013-06-05 07:17:00,
2013-06-05 03:22:00,57.4,50.9,29.95,NNW,337,0.0,0.0,79,0.00,,,0.00,WUHU21623XXSP,2013-06-05 07:22:00,
2013-06-05 03:27:00,57.4,50.9,29.95,NNW,337,0.0,0.0,79,0.00,,,0.00,WUHU21623XXSP,2013-06-05 07:27:00,
2013-06-05 03:32:00,57.4,50.9,29.95,NNW,337,0.0,0.0,79,0.00,,,0.00,WUHU21623XXSP,2013-06-05 07:32:00,
2013-06-05 03:37:00,57.2,50.7,29.95,NNW,337,0.0,0.0,79,0.00,,,0.00,WUHU21623XXSP,2013-06-05 07:37:00,
2013-06-05 03:40:00,57.4,51.0,29.95,NNW,338,0.0,0.0,79,0.00,,,0.00,WUHU21623XXSP,2013-06-05 07:40:00,
2013-06-05 03:42:00,57.4,50.9,29.95,NNW,337,0.0,0.0,79,0.00,,,0.00,WUHU21623XXSP,2013-06-05 07:42:00,
2013-06-05 03:47:00,57.4,50.9,29.95,NNW,337,0.0,0.0,79,0.00,,,0.00,WUHU21623XXSP,2013-06-05 07:47:00,
2013-06-05 03:52:00,57.4,50.9,29.95,NNW,337,0.0,0.0,79,0.00,,,0.00,WUHU21623XXSP,2013-06-05 07:52:00,
2013-06-05 03:57:00,57.4,51.3,29.95,NNW,337,0.0,0.0,80,0.00,,,0.00,WUHU21623XXSP,2013-06-05 07:57:00,
2013-06-05 04:02:00,57.2,51.1,29.94,NNW,337,0.0,0.0,80,0.00,,,0.00,WUHU21623XXSP,2013-06-05 08:02:00,
2013-06-05 04:07:00,57.2,51.1,29.94,NNW,337,0.0,0.0,80,0.00,,,0.00,WUHU21623XXSP,2013-06-05 08:07:00,
2013-06-05 04:12:00,57.0,50.9,29.94,NNW,337,0.0,0.0,80,0.00,,,0.00,WUHU21623XXSP,2013-06-05 08:12:00,
2013-06-05 04:17:00,57.0,50.9,29.94,NNW,337,0.0,0.0,80,0.00,,,0.00,WUHU21623XXSP,2013-06-05 08:17:00,
2013-06-05 04:23:00,57.0,50.9,29.94,NNW,337,0.0,0.0,80,0.00,,,0.00,WUHU21623XXSP,2013-06-05 08:23:00,
2013-06-05 04:28:00,57.0,50.9,29.94,NW,315,0.0,0.0,80,0.00,,,0.00,WUHU21623XXSP,2013-06-05 08:28:00,
2013-06-05 04:33:00,57.0,50.9,29.94,WSW,247,0.0,0.0,80,0.00,,,0.00,WUHU21623XXSP,2013-06-05 08:33:00,
2013-06-05 04:38:00,57.0,50.5,29.94,West,270,0.0,0.0,79,0.00,,,0.00,WUHU21623XXSP,2013-06-05 08:38:00,
2013-06-05 04:40:00,57.0,50.6,29.94,West,270,2.0,2.0,79,0.00,,,0.00,WUHU21623XXSP,2013-06-05 08:40:00,
2013-06-05 04:43:00,57.0,50.2,29.94,North,0,0.0,2.0,78,0.00,,,0.00,WUHU21623XXSP,2013-06-05 08:43:00,
2013-06-05 04:47:00,57.2,50.4,29.93,West,270,0.0,2.0,78,0.00,,,0.00,WUHU21623XXSP,2013-06-05 08:47:00,
2013-06-05 04:52:00,57.4,50.5,29.93,West,270,0.0,0.0,78,0.00,,,0.00,WUHU21623XXSP,2013-06-05 08:52:00,
2013-06-05 04:57:00,57.4,49.8,29.93,NW,315,0.0,0.0,76,0.00,,,0.00,WUHU21623XXSP,2013-06-05 08:57:00,
2013-06-05 05:03:00,57.4,49.5,29.93,NNW,337,0.0,0.0,75,0.00,,,0.00,WUHU21623XXSP,2013-06-05 09:03:00,
2013-06-05 05:08:00,57.6,49.3,29.93,NNW,337,0.0,0.0,74,0.00,,,0.00,WUHU21623XXSP,2013-06-05 09:08:00,
2013-06-05 05:13:00,57.6,48.9,29.93,NNE,22,0.0,0.0,73,0.00,,,0.00,WUHU21623XXSP,2013-06-05 09:13:00,
2013-06-05 05:18:00,57.7,48.7,29.93,NW,315,0.0,0.0,72,0.00,,,0.00,WUHU21623XXSP,2013-06-05 09:18:00,
2013-06-05 05:23:00,57.7,48.0,29.93,NW,315,0.0,0.0,70,0.00,,,0.00,WUHU21623XXSP,2013-06-05 09:23:00,
2013-06-05 05:28:00,57.9,48.2,29.93,NNW,337,0.0,0.0,70,0.00,,,0.00,WUHU21623XXSP,2013-06-05 09:28:00,
2013-06-05 05:33:00,57.9,48.2,29.93,WSW,247,0.0,0.0,70,0.00,,,0.00,WUHU21623XXSP,2013-06-05 09:33:00,
2013-06-05 05:38:00,57.9,47.8,29.94,WSW,247,0.0,0.0,69,0.00,,,0.00,WUHU21623XXSP,2013-06-05 09:38:00,
2013-06-05 05:40:00,57.9,47.9,29.93,WSW,248,0.0,0.0,69,0.00,,,0.00,WUHU21623XXSP,2013-06-05 09:40:00,
2013-06-05 05:43:00,57.9,47.8,29.94,WSW,247,0.0,0.0,69,0.00,,,0.00,WUHU21623XXSP,2013-06-05 09:43:00,
2013-06-05 06:20:00,57.7,47.6,29.96,NNW,337,0.0,0.0,69,0.00,,,0.00,WUHU21623XXSP,2013-06-05 10:20:00,
2013-06-05 06:25:00,57.7,48.0,29.96,NNW,337,0.0,0.0,70,0.00,,,0.00,WUHU21623XXSP,2013-06-05 10:25:00,
2013-06-05 06:30:00,57.7,48.0,29.96,NNW,337,0.0,0.0,70,0.00,,,0.00,WUHU21623XXSP,2013-06-05 10:30:00,
2013-06-05 06:35:00,57.7,48.4,29.96,NNW,337,0.0,0.0,71,0.00,,,0.00,WUHU21623XXSP,2013-06-05 10:35:00,
2013-06-05 06:40:00,57.7,48.7,29.96,NNW,337,0.0,0.0,72,0.00,,,0.00,WUHU21623XXSP,2013-06-05 10:40:00,
2013-06-05 06:45:00,57.6,48.2,29.95,NW,315,0.0,0.0,71,0.00,,,0.00,WUHU21623XXSP,2013-06-05 10:45:00,
2013-06-05 06:50:00,57.6,48.2,29.95,NNW,337,0.0,0.0,71,0.00,,,0.00,WUHU21623XXSP,2013-06-05 10:50:00,
2013-06-05 06:55:00,57.6,48.2,29.94,WSW,247,0.9,0.9,71,0.00,,,0.00,WUHU21623XXSP,2013-06-05 10:55:00,
2013-06-05 07:00:00,57.4,48.0,29.95,NW,315,0.0,0.9,71,0.00,,,0.00,WUHU21623XXSP,2013-06-05 11:00:00,
2013-06-05 07:05:00,57.4,48.0,29.95,WSW,247,0.0,0.0,71,0.00,,,0.00,WUHU21623XXSP,2013-06-05 11:05:00,
2013-06-05 07:10:00,57.4,48.0,29.95,West,270,0.0,0.0,71,0.00,,,0.00,WUHU21623XXSP,2013-06-05 11:10:00,
2013-06-05 07:15:00,57.2,47.8,29.96,West,270,0.0,0.0,71,0.00,,,0.00,WUHU21623XXSP,2013-06-05 11:15:00,
2013-06-05 07:20:00,57.0,47.7,29.96,SE,135,1.1,1.1,71,0.00,,,0.00,WUHU21623XXSP,2013-06-05 11:20:00,
2013-06-05 07:25:00,57.0,47.7,29.96,WSW,247,0.0,1.1,71,0.00,,,0.00,WUHU21623XXSP,2013-06-05 11:25:00,
2013-06-05 07:30:00,57.2,48.2,29.96,NW,315,0.0,0.0,72,0.00,,,0.00,WUHU21623XXSP,2013-06-05 11:30:00,
2013-06-05 07:35:00,57.4,48.0,29.96,WSW,247,0.0,1.1,71,0.00,,,0.00,WUHU21623XXSP,2013-06-05 11:35:00,
2013-06-05 07:40:00,57.4,48.0,29.96,WNW,292,0.0,2.5,71,0.00,,,0.00,WUHU21623XXSP,2013-06-05 11:40:00,
2013-06-05 07:45:00,57.4,48.0,29.95,SSE,157,1.3,2.5,71,0.00,,,0.00,WUHU21623XXSP,2013-06-05 11:45:00,
2013-06-05 07:50:00,57.6,48.2,29.96,NNE,22,0.0,1.3,71,0.00,,,0.00,WUHU21623XXSP,2013-06-05 11:50:00,
2013-06-05 07:55:00,57.6,48.2,29.96,North,0,0.0,0.0,71,0.00,,,0.00,WUHU21623XXSP,2013-06-05 11:55:00,
2013-06-05 08:00:00,57.7,48.6,29.96,North,0,0.0,0.0,72,0.00,,,0.00,WUHU21623XXSP,2013-06-05 12:00:00,
2013-06-05 08:05:00,57.7,48.7,29.96,NNE,22,0.0,1.1,72,0.00,,,0.00,WUHU21623XXSP,2013-06-05 12:05:00,
2013-06-05 08:10:00,57.9,48.6,29.96,ESE,122,1.7,3.8,71,0.00,,,0.00,WUHU21623XXSP,2013-06-05 12:10:00,
2013-06-05 08:15:00,57.9,48.9,29.95,East,90,0.0,3.8,72,0.00,,,0.00,WUHU21623XXSP,2013-06-05 12:15:00,
2013-06-05 08:20:00,58.1,49.1,29.95,West,270,0.0,0.0,72,0.00,,,0.00,WUHU21623XXSP,2013-06-05 12:20:00,
2013-06-05 08:25:00,58.3,49.3,29.95,NNE,22,0.0,0.0,72,0.00,,,0.00,WUHU21623XXSP,2013-06-05 12:25:00,
2013-06-05 08:30:00,58.3,49.3,29.94,NNE,22,0.0,0.0,72,0.00,,,0.00,WUHU21623XXSP,2013-06-05 12:30:00,
2013-06-05 08:35:00,58.6,49.6,29.94,East,90,1.1,1.1,72,0.00,,,0.00,WUHU21623XXSP,2013-06-05 12:35:00,
2013-06-05 08:40:00,58.8,49.8,29.94,NNW,337,0.0,1.1,72,0.00,,,0.00,WUHU21623XXSP,2013-06-05 12:40:00,
2013-06-05 08:45:00,58.8,49.8,29.94,WSW,247,0.0,0.0,72,0.00,,,0.00,WUHU21623XXSP,2013-06-05 12:45:00,
2013-06-05 08:50:00,58.8,49.5,29.94,South,180,1.1,1.1,71,0.00,,,0.00,WUHU21623XXSP,2013-06-05 12:50:00,
2013-06-05 08:55:00,58.8,49.5,29.93,WNW,292,0.0,1.1,71,0.00,,,0.00,WUHU21623XXSP,2013-06-05 12:55:00,
2013-06-05 09:00:00,59.2,49.5,29.94,ESE,112,1.1,1.1,70,0.00,,,0.00,WUHU21623XXSP,2013-06-05 13:00:00,
2013-06-05 09:05:00,59.5,49.8,29.93,NW,315,0.0,1.1,70,0.00,,,0.00,WUHU21623XXSP,2013-06-05 13:05:00,
2013-06-05 09:10:00,59.5,49.4,29.93,SW,225,0.0,0.7,69,0.00,,,0.00,WUHU21623XXSP,2013-06-05 13:10:00,
2013-06-05 09:15:00,59.9,50.2,29.93,WSW,248,0.9,0.9,70,0.00,,,0.00,WUHU21623XXSP,2013-06-05 13:15:00,
2013-06-05 09:20:00,60.1,49.9,29.93,NW,315,0.0,1.1,69,0.00,,,0.00,WUHU21623XXSP,2013-06-05 13:20:00,
2013-06-05 09:25:00,60.4,49.9,29.93,WNW,291,1.2,1.3,68,0.00,,,0.00,WUHU21623XXSP,2013-06-05 13:25:00,
2013-06-05 09:30:00,60.6,50.5,29.93,North,0,0.0,1.3,69,0.00,,,0.00,WUHU21623XXSP,2013-06-05 13:30:00,
2013-06-05 09:35:00,61.0,50.4,29.92,NNW,337,0.0,1.1,68,0.00,,,0.00,WUHU21623XXSP,2013-06-05 13:35:00,
2013-06-05 09:40:00,61.2,50.6,29.92,North,0,0.7,1.1,68,0.00,,,0.00,WUHU21623XXSP,2013-06-05 13:40:00,
2013-06-05 09:45:00,61.3,50.3,29.92,East,87,1.8,3.1,67,0.00,,,0.00,WUHU21623XXSP,2013-06-05 13:45:00,
2013-06-05 09:50:00,61.5,50.1,29.91,NNE,22,0.0,3.1,66,0.00,,,0.00,WUHU21623XXSP,2013-06-05 13:50:00,
2013-06-05 09:55:00,61.5,50.1,29.91,NNE,25,2.6,3.6,66,0.00,,,0.00,WUHU21623XXSP,2013-06-05 13:55:00,
2013-06-05 10:00:00,62.1,49.7,29.91,SSE,161,1.2,3.6,64,0.00,,,0.00,WUHU21623XXSP,2013-06-05 14:00:00,
2013-06-05 10:05:00,62.4,49.2,29.91,NE,45,1.1,4.0,62,0.00,,,0.00,WUHU21623XXSP,2013-06-05 14:05:00,
2013-06-05 10:10:00,63.0,50.1,29.91,NW,315,0.0,4.0,63,0.00,,,0.00,WUHU21623XXSP,2013-06-05 14:10:00,
2013-06-05 10:15:00,63.3,50.5,29.91,NE,34,2.2,3.4,63,0.00,,,0.00,WUHU21623XXSP,2013-06-05 14:15:00,
2013-06-05 10:20:00,63.5,50.2,29.91,SW,215,1.4,3.4,62,0.00,,,0.00,WUHU21623XXSP,2013-06-05 14:20:00,
2013-06-05 10:25:00,63.7,49.0,29.91,WSW,247,1.1,2.5,59,0.00,,,0.00,WUHU21623XXSP,2013-06-05 14:25:00,
2013-06-05 10:30:00,63.9,49.2,29.91,SSW,202,0.9,2.9,59,0.00,,,0.00,WUHU21623XXSP,2013-06-05 14:30:00,
2013-06-05 10:35:00,64.0,48.9,29.91,West,270,0.9,2.9,58,0.00,,,0.00,WUHU21623XXSP,2013-06-05 14:35:00,
2013-06-05 10:40:00,64.0,48.4,29.91,SSW,202,0.0,0.9,57,0.00,,,0.00,WUHU21623XXSP,2013-06-05 14:40:00,
2013-06-05 10:45:00,64.2,49.5,29.91,NW,315,0.0,0.0,59,0.00,,,0.00,WUHU21623XXSP,2013-06-05 14:45:00,
2013-06-05 10:50:00,64.2,50.0,29.90,ENE,67,0.0,1.3,60,0.00,,,0.00,WUHU21623XXSP,2013-06-05 14:50:00,
2013-06-05 10:55:00,64.6,51.2,29.90,North,0,0.0,1.3,62,0.00,,,0.00,WUHU21623XXSP,2013-06-05 14:55:00,
2013-06-05 11:00:00,64.6,51.6,29.90,SW,225,1.6,1.6,63,0.00,,,0.00,WUHU21623XXSP,2013-06-05 15:00:00,
2013-06-05 11:05:00,64.6,51.6,29.90,NW,315,0.0,1.6,63,0.00,,,0.00,WUHU21623XXSP,2013-06-05 15:05:00,
2013-06-05 11:10:00,64.6,51.6,29.90,NW,315,0.0,0.9,63,0.00,,,0.00,WUHU21623XXSP,2013-06-05 15:10:00,
2013-06-05 11:15:00,64.8,52.3,29.89,North,350,1.3,2.2,64,0.00,,,0.00,WUHU21623XXSP,2013-06-05 15:15:00,
2013-06-05 11:20:00,64.9,52.4,29.90,NW,315,0.0,2.2,64,0.00,,,0.00,WUHU21623XXSP,2013-06-05 15:20:00,
2013-06-05 11:25:00,65.3,51.1,29.90,North,0,0.0,3.8,60,0.00,,,0.00,WUHU21623XXSP,2013-06-05 15:25:00,
2013-06-05 11:30:00,66.0,51.3,29.89,NNW,335,1.2,3.8,59,0.00,,,0.00,WUHU21623XXSP,2013-06-05 15:30:00,
2013-06-05 11:35:00,66.6,50.8,29.89,North,0,0.9,1.8,57,0.00,,,0.00,WUHU21623XXSP,2013-06-05 15:35:00,
2013-06-05 11:40:00,67.1,51.3,29.90,NNE,22,0.0,4.7,57,0.00,,,0.00,WUHU21623XXSP,2013-06-05 15:40:00,
2013-06-05 11:45:00,67.8,51.5,29.91,NE,45,0.0,4.7,56,0.00,,,0.00,WUHU21623XXSP,2013-06-05 15:45:00,
2013-06-05 11:50:00,68.2,50.8,29.90,South,180,1.8,2.2,54,0.00,,,0.00,WUHU21623XXSP,2013-06-05 15:50:00,
2013-06-05 11:55:00,68.7,50.4,29.89,NNE,22,0.0,2.2,52,0.00,,,0.00,WUHU21623XXSP,2013-06-05 15:55:00,
2013-06-05 12:00:00,69.4,51.5,29.89,West,270,0.0,0.9,53,0.00,,,0.00,WUHU21623XXSP,2013-06-05 16:00:00,
2013-06-05 12:05:00,70.0,51.5,29.89,SSE,157,1.1,2.0,52,0.00,,,0.00,WUHU21623XXSP,2013-06-05 16:05:00,
2013-06-05 12:10:00,70.5,51.0,29.89,South,188,1.4,6.3,50,0.00,,,0.00,WUHU21623XXSP,2013-06-05 16:10:00,
2013-06-05 12:15:00,71.2,52.2,29.89,SSE,157,0.7,6.3,51,0.00,,,0.00,WUHU21623XXSP,2013-06-05 16:15:00,
2013-06-05 12:20:00,71.4,51.8,29.89,South,176,2.0,4.5,50,0.00,,,0.00,WUHU21623XXSP,2013-06-05 16:20:00,
2013-06-05 12:25:00,71.8,52.6,29.89,SW,219,1.4,4.5,51,0.00,,,0.00,WUHU21623XXSP,2013-06-05 16:25:00,
2013-06-05 12:30:00,72.0,52.8,29.89,NNW,337,0.0,2.7,51,0.00,,,0.00,WUHU21623XXSP,2013-06-05 16:30:00,
2013-06-05 12:35:00,72.0,52.8,29.89,NE,45,0.9,0.9,51,0.00,,,0.00,WUHU21623XXSP,2013-06-05 16:35:00,
2013-06-05 12:40:00,71.8,53.2,29.89,ENE,67,0.7,0.9,52,0.00,,,0.00,WUHU21623XXSP,2013-06-05 16:40:00,
2013-06-05 12:45:00,71.4,52.8,29.89,NNE,22,0.0,0.7,52,0.00,,,0.00,WUHU21623XXSP,2013-06-05 16:45:00,
2013-06-05 12:50:00,71.2,52.7,29.89,North,0,1.8,2.0,52,0.00,,,0.00,WUHU21623XXSP,2013-06-05 16:50:00,
2013-06-05 12:55:00,70.7,52.7,29.88,NE,45,0.0,2.0,53,0.00,,,0.00,WUHU21623XXSP,2013-06-05 16:55:00,
2013-06-05 13:00:00,70.5,52.0,29.89,SSE,157,0.9,0.9,52,0.00,,,0.00,WUHU21623XXSP,2013-06-05 17:00:00,
2013-06-05 13:05:00,70.7,53.2,29.88,NNE,22,0.0,2.0,54,0.00,,,0.00,WUHU21623XXSP,2013-06-05 17:05:00,
2013-06-05 13:10:00,71.1,52.5,29.88,NE,34,0.9,2.0,52,0.00,,,0.00,WUHU21623XXSP,2013-06-05 17:10:00,
2013-06-05 13:15:00,71.4,51.8,29.88,NNE,27,1.0,2.0,50,0.00,,,0.00,WUHU21623XXSP,2013-06-05 17:15:00,
2013-06-05 13:20:00,71.8,52.1,29.89,ESE,112,0.9,2.0,50,0.00,,,0.00,WUHU21623XXSP,2013-06-05 17:20:00,
2013-06-05 13:25:00,72.3,51.4,29.88,NE,45,0.0,1.6,48,0.00,,,0.00,WUHU21623XXSP,2013-06-05 17:25:00,
2013-06-05 13:30:00,73.0,52.1,29.88,NNW,337,1.8,2.2,48,0.00,,,0.00,WUHU21623XXSP,2013-06-05 17:30:00,
2013-06-05 13:35:00,73.2,51.7,29.88,SSE,166,1.8,2.9,47,0.00,,,0.00,WUHU21623XXSP,2013-06-05 17:35:00,
2013-06-05 13:40:00,73.2,52.3,29.88,North,0,0.0,4.0,48,0.00,,,0.00,WUHU21623XXSP,2013-06-05 17:40:00,
2013-06-05 13:45:00,73.2,51.7,29.88,ESE,119,0.9,4.0,47,0.00,,,0.00,WUHU21623XXSP,2013-06-05 17:45:00,
2013-06-05 13:50:00,73.4,51.8,29.89,SSE,157,0.0,1.1,47,0.00,,,0.00,WUHU21623XXSP,2013-06-05 17:50:00,
2013-06-05 13:55:00,73.4,52.4,29.88,SSE,157,1.3,1.3,48,0.00,,,0.00,WUHU21623XXSP,2013-06-05 17:55:00,
2013-06-05 14:00:00,73.6,52.6,29.88,NE,45,0.0,1.3,48,0.00,,,0.00,WUHU21623XXSP,2013-06-05 18:00:00,
2013-06-05 14:05:00,73.4,53.0,29.88,North,0,0.0,0.9,49,0.00,,,0.00,WUHU21623XXSP,2013-06-05 18:05:00,
2013-06-05 14:10:00,73.2,52.8,29.88,North,0,0.0,1.3,49,0.00,,,0.00,WUHU21623XXSP,2013-06-05 18:10:00,
2013-06-05 14:15:00,73.2,52.8,29.88,North,0,1.1,1.3,49,0.00,,,0.00,WUHU21623XXSP,2013-06-05 18:15:00,
2013-06-05 14:20:00,73.2,51.7,29.88,NE,45,0.0,1.6,47,0.00,,,0.00,WUHU21623XXSP,2013-06-05 18:20:00,
2013-06-05 14:25:00,73.0,53.3,29.87,East,90,0.0,1.6,50,0.00,,,0.00,WUHU21623XXSP,2013-06-05 18:25:00,
2013-06-05 14:30:00,73.2,52.8,29.87,SE,135,0.0,1.6,49,0.00,,,0.00,WUHU21623XXSP,2013-06-05 18:30:00,
2013-06-05 14:35:00,73.6,53.2,29.87,ENE,67,1.6,1.6,49,0.00,,,0.00,WUHU21623XXSP,2013-06-05 18:35:00,
2013-06-05 14:40:00,73.8,52.2,29.87,NNW,337,0.0,1.6,47,0.00,,,0.00,WUHU21623XXSP,2013-06-05 18:40:00,
2013-06-05 14:45:00,74.1,53.7,29.87,WNW,292,0.7,1.3,49,0.00,,,0.00,WUHU21623XXSP,2013-06-05 18:45:00,
2013-06-05 14:50:00,74.3,54.5,29.87,North,0,1.3,1.6,50,0.00,,,0.00,WUHU21623XXSP,2013-06-05 18:50:00,
2013-06-05 14:55:00,74.5,53.5,29.86,NE,56,1.3,2.0,48,0.00,,,0.00,WUHU21623XXSP,2013-06-05 18:55:00,
2013-06-05 15:00:00,74.5,52.9,29.86,NE,45,2.2,2.2,47,0.00,,,0.00,WUHU21623XXSP,2013-06-05 19:00:00,
2013-06-05 15:05:00,74.3,52.1,29.86,NNE,22,0.0,2.2,47,0.00,,,0.00,WUHU21623XXSP,2013-06-05 19:05:00,
2013-06-05 15:10:00,74.1,52.5,29.86,NNE,22,0.7,0.7,47,0.00,,,0.00,WUHU21623XXSP,2013-06-05 19:10:00,
2013-06-05 15:15:00,74.1,53.1,29.86,South,190,1.0,1.3,48,0.00,,,0.00,WUHU21623XXSP,2013-06-05 19:15:00,
2013-06-05 15:20:00,74.5,52.3,29.85,WSW,247,1.1,1.3,46,0.00,,,0.00,WUHU21623XXSP,2013-06-05 19:20:00,
2013-06-05 15:25:00,74.8,52.6,29.85,North,0,0.0,1.1,46,0.00,,,0.00,WUHU21623XXSP,2013-06-05 19:25:00,
2013-06-05 15:30:00,74.8,52.6,29.85,NNE,22,0.0,0.0,46,0.00,,,0.00,WUHU21623XXSP,2013-06-05 19:30:00,
2013-06-05 15:35:00,74.8,51.4,29.84,NE,45,1.8,1.8,44,0.00,,,0.00,WUHU21623XXSP,2013-06-05 19:35:00,
2013-06-05 15:40:00,74.8,52.0,29.84,NE,45,1.1,1.8,45,0.00,,,0.00,WUHU21623XXSP,2013-06-05 19:40:00,
2013-06-05 15:45:00,74.8,51.4,29.84,NE,45,1.3,2.2,44,0.00,,,0.00,WUHU21623XXSP,2013-06-05 19:45:00,
2013-06-05 15:50:00,74.7,51.8,29.84,SSE,155,1.0,2.2,45,0.00,,,0.00,WUHU21623XXSP,2013-06-05 19:50:00,
2013-06-05 15:55:00,74.8,52.6,29.84,NNE,22,2.0,2.7,46,0.00,,,0.00,WUHU21623XXSP,2013-06-05 19:55:00,
2013-06-05 16:00:00,74.7,52.4,29.84,SSE,157,1.1,2.7,46,0.00,,,0.00,WUHU21623XXSP,2013-06-05 20:00:00,
2013-06-05 16:05:00,74.5,52.3,29.84,North,0,0.9,1.6,46,0.00,,,0.00,WUHU21623XXSP,2013-06-05 20:05:00,
2013-06-05 16:10:00,74.5,52.3,29.83,NE,45,0.0,1.6,46,0.00,,,0.00,WUHU21623XXSP,2013-06-05 20:10:00,
2013-06-05 16:15:00,74.1,51.9,29.83,NE,45,1.0,1.1,46,0.00,,,0.00,WUHU21623XXSP,2013-06-05 20:15:00,
2013-06-05 16:20:00,73.9,51.1,29.83,NE,45,0.0,1.8,45,0.00,,,0.00,WUHU21623XXSP,2013-06-05 20:20:00,
2013-06-05 16:25:00,73.6,52.0,29.83,NE,45,0.0,1.8,47,0.00,,,0.00,WUHU21623XXSP,2013-06-05 20:25:00,
2013-06-05 16:30:00,73.2,51.1,29.83,NNE,26,1.1,1.6,46,0.00,,,0.00,WUHU21623XXSP,2013-06-05 20:30:00,
2013-06-05 16:35:00,73.0,52.1,29.83,NE,45,0.0,1.6,48,0.00,,,0.00,WUHU21623XXSP,2013-06-05 20:35:00,
2013-06-05 16:40:00,72.9,51.3,29.83,NE,45,0.0,0.0,47,0.00,,,0.00,WUHU21623XXSP,2013-06-05 20:40:00,
2013-06-05 16:45:00,72.5,52.8,29.83,NE,45,0.0,0.0,50,0.00,,,0.00,WUHU21623XXSP,2013-06-05 20:45:00,
2013-06-05 16:50:00,72.3,52.6,29.83,NNE,22,0.0,2.0,50,0.00,,,0.00,WUHU21623XXSP,2013-06-05 20:50:00,
2013-06-05 16:55:00,72.1,51.9,29.83,ENE,67,0.0,2.0,49,0.00,,,0.00,WUHU21623XXSP,2013-06-05 20:55:00,
2013-06-05 17:00:00,72.0,52.8,29.83,NE,45,0.0,2.0,51,0.00,,,0.00,WUHU21623XXSP,2013-06-05 21:00:00,
2013-06-05 17:05:00,71.8,51.0,29.83,NNE,22,0.9,2.5,48,0.00,,,0.00,WUHU21623XXSP,2013-06-05 21:05:00,
2013-06-05 17:11:00,71.8,52.1,29.83,NNE,22,0.7,2.5,50,0.00,,,0.00,WUHU21623XXSP,2013-06-05 21:11:00,
2013-06-05 17:16:00,71.6,52.0,29.83,NE,45,0.9,1.3,50,0.00,,,0.00,WUHU21623XXSP,2013-06-05 21:16:00,
2013-06-05 17:21:00,71.8,51.5,29.83,NE,45,0.0,0.9,49,0.00,,,0.00,WUHU21623XXSP,2013-06-05 21:21:00,
2013-06-05 17:26:00,71.4,51.8,29.83,NE,45,0.0,0.7,50,0.00,,,0.00,WUHU21623XXSP,2013-06-05 21:26:00,
2013-06-05 17:30:00,71.4,51.8,29.83,NE,45,0.0,0.9,50,0.00,,,0.00,WUHU21623XXSP,2013-06-05 21:30:00,
2013-06-05 17:35:00,71.2,52.7,29.82,ENE,67,0.0,0.9,52,0.00,,,0.00,WUHU21623XXSP,2013-06-05 21:35:00,
2013-06-05 17:40:00,70.9,51.4,29.82,NE,45,0.0,0.0,50,0.00,,,0.00,WUHU21623XXSP,2013-06-05 21:40:00,
2013-06-05 17:41:00,70.9,51.3,29.82,NE,45,0.0,1.3,50,0.00,,,0.00,WUHU21623XXSP,2013-06-05 21:41:00,
2013-06-05 17:46:00,70.9,52.8,29.82,NNE,22,0.0,1.3,53,0.00,,,0.00,WUHU21623XXSP,2013-06-05 21:46:00,
2013-06-05 17:51:00,70.5,52.0,29.81,NE,49,0.8,1.3,52,0.00,,,0.00,WUHU21623XXSP,2013-06-05 21:51:00,
2013-06-05 17:56:00,70.2,51.2,29.81,NE,45,0.0,1.3,51,0.00,,,0.00,WUHU21623XXSP,2013-06-05 21:56:00,
2013-06-05 18:01:00,70.0,51.0,29.82,NE,45,1.3,1.6,51,0.00,,,0.00,WUHU21623XXSP,2013-06-05 22:01:00,
2013-06-05 18:06:00,69.6,50.7,29.82,NE,45,1.1,1.6,51,0.00,,,0.00,WUHU21623XXSP,2013-06-05 22:06:00,
2013-06-05 18:11:00,69.6,50.7,29.81,NE,45,0.0,1.1,51,0.00,,,0.00,WUHU21623XXSP,2013-06-05 22:11:00,
2013-06-05 18:16:00,69.6,50.7,29.81,NE,45,0.0,0.7,51,0.00,,,0.00,WUHU21623XXSP,2013-06-05 22:16:00,
2013-06-05 18:21:00,69.4,50.5,29.81,NE,45,0.0,0.9,51,0.00,,,0.00,WUHU21623XXSP,2013-06-05 22:21:00,
2013-06-05 18:26:00,69.4,51.0,29.81,NE,45,0.0,1.3,52,0.00,,,0.00,WUHU21623XXSP,2013-06-05 22:26:00,
2013-06-05 18:31:00,69.1,51.2,29.81,NE,45,0.0,1.3,53,0.00,,,0.00,WUHU21623XXSP,2013-06-05 22:31:00,
2013-06-05 18:36:00,69.1,51.2,29.81,NE,45,1.1,1.6,53,0.00,,,0.00,WUHU21623XXSP,2013-06-05 22:36:00,
2013-06-05 18:40:00,68.7,51.0,29.80,NNE,23,0.0,0.0,53,0.00,,,0.00,WUHU21623XXSP,2013-06-05 22:40:00,
2013-06-05 18:41:00,68.7,50.9,29.81,NNE,22,0.7,1.6,53,0.00,,,0.00,WUHU21623XXSP,2013-06-05 22:41:00,
2013-06-05 18:46:00,68.5,50.7,29.80,NNE,22,0.0,1.3,53,0.00,,,0.00,WUHU21623XXSP,2013-06-05 22:46:00,
2013-06-05 18:51:00,68.5,50.7,29.80,NE,45,0.0,0.0,53,0.00,,,0.00,WUHU21623XXSP,2013-06-05 22:51:00,
2013-06-05 18:56:00,68.2,50.4,29.80,NE,45,1.1,1.1,53,0.00,,,0.00,WUHU21623XXSP,2013-06-05 22:56:00,
2013-06-05 19:01:00,68.2,49.9,29.80,NE,45,0.9,1.1,52,0.00,,,0.00,WUHU21623XXSP,2013-06-05 23:01:00,
2013-06-05 19:06:00,68.2,50.4,29.80,NE,45,0.0,0.9,53,0.00,,,0.00,WUHU21623XXSP,2013-06-05 23:06:00,
2013-06-05 19:11:00,67.8,50.0,29.79,NE,45,0.0,0.0,53,0.00,,,0.00,WUHU21623XXSP,2013-06-05 23:11:00,
2013-06-05 19:16:00,67.8,50.0,29.79,NE,45,0.0,0.0,53,0.00,,,0.00,WUHU21623XXSP,2013-06-05 23:16:00,
2013-06-05 19:21:00,67.8,50.0,29.79,NE,45,0.0,0.0,53,0.00,,,0.00,WUHU21623XXSP,2013-06-05 23:21:00,
2013-06-05 19:26:00,67.6,50.4,29.79,NE,45,0.0,1.3,54,0.00,,,0.00,WUHU21623XXSP,2013-06-05 23:26:00,
2013-06-05 19:31:00,67.3,49.1,29.79,NE,45,0.0,1.3,52,0.00,,,0.00,WUHU21623XXSP,2013-06-05 23:31:00,
2013-06-05 19:36:00,67.1,48.9,29.79,NE,45,0.0,0.0,52,0.00,,,0.00,WUHU21623XXSP,2013-06-05 23:36:00,
2013-06-05 19:40:00,67.1,49.0,29.79,NE,45,0.0,0.0,52,0.00,,,0.00,WUHU21623XXSP,2013-06-05 23:40:00,
2013-06-05 19:41:00,67.1,48.9,29.79,NE,45,0.0,0.0,52,0.00,,,0.00,WUHU21623XXSP,2013-06-05 23:41:00,
2013-06-05 19:46:00,66.9,48.7,29.79,ENE,67,1.1,1.1,52,0.00,,,0.00,WUHU21623XXSP,2013-06-05 23:46:00,
2013-06-05 19:51:00,66.9,49.2,29.79,NNE,22,0.0,1.1,53,0.00,,,0.00,WUHU21623XXSP,2013-06-05 23:51:00,
2013-06-05 19:56:00,66.7,48.6,29.80,NNE,22,0.7,0.9,52,0.00,,,0.00,WUHU21623XXSP,2013-06-05 23:56:00,
2013-06-05 20:01:00,66.7,48.6,29.80,NNE,22,0.0,0.9,52,0.00,,,0.00,WUHU21623XXSP,2013-06-06 00:01:00,
2013-06-05 20:06:00,66.6,47.9,29.80,NE,45,0.9,1.3,51,0.00,,,0.00,WUHU21623XXSP,2013-06-06 00:06:00,
2013-06-05 20:11:00,66.6,47.9,29.80,NNE,22,0.0,1.3,51,0.00,,,0.00,WUHU21623XXSP,2013-06-06 00:11:00,
2013-06-05 20:16:00,66.6,47.9,29.80,NE,45,0.0,1.3,51,0.00,,,0.00,WUHU21623XXSP,2013-06-06 00:16:00,
2013-06-05 20:21:00,66.4,47.8,29.79,NE,45,0.9,0.9,51,0.00,,,0.00,WUHU21623XXSP,2013-06-06 00:21:00,
2013-06-05 20:27:00,66.4,47.8,29.80,NE,45,0.0,0.9,51,0.00,,,0.00,WUHU21623XXSP,2013-06-06 00:27:00,
2013-06-05 20:32:00,66.2,47.6,29.79,NE,45,0.0,0.0,51,0.00,,,0.00,WUHU21623XXSP,2013-06-06 00:32:00,
2013-06-05 20:37:00,66.0,47.4,29.79,NNE,22,0.9,1.1,51,0.00,,,0.00,WUHU21623XXSP,2013-06-06 00:37:00,
2013-06-05 20:40:00,66.0,47.4,29.79,NNE,23,0.0,0.0,51,0.00,,,0.00,WUHU21623XXSP,2013-06-06 00:40:00,
2013-06-05 20:42:00,66.0,46.9,29.79,NNE,22,1.0,1.3,50,0.00,,,0.00,WUHU21623XXSP,2013-06-06 00:42:00,
2013-06-05 20:47:00,66.0,46.9,29.79,NNE,22,1.1,1.3,50,0.00,,,0.00,WUHU21623XXSP,2013-06-06 00:47:00,
2013-06-05 20:52:00,65.8,46.8,29.79,NE,45,0.0,1.8,50,0.00,,,0.00,WUHU21623XXSP,2013-06-06 00:52:00,
2013-06-05 20:57:00,65.8,47.2,29.79,NE,45,0.0,1.8,51,0.00,,,0.00,WUHU21623XXSP,2013-06-06 00:57:00,
2013-06-05 21:02:00,65.7,46.6,29.79,NE,45,0.0,2.0,50,0.00,,,0.00,WUHU21623XXSP,2013-06-06 01:02:00,
2013-06-05 21:07:00,65.5,46.9,29.79,NE,45,0.7,2.0,51,0.00,,,0.00,WUHU21623XXSP,2013-06-06 01:07:00,
2013-06-05 21:12:00,65.1,47.0,29.79,NE,45,0.0,0.7,52,0.00,,,0.00,WUHU21623XXSP,2013-06-06 01:12:00,
2013-06-05 21:17:00,65.1,46.5,29.79,NE,45,0.7,2.5,51,0.00,,,0.00,WUHU21623XXSP,2013-06-06 01:17:00,
2013-06-05 21:22:00,64.9,46.3,29.79,NE,45,0.0,2.5,51,0.00,,,0.00,WUHU21623XXSP,2013-06-06 01:22:00,
2013-06-05 21:27:00,64.9,46.8,29.80,NE,45,0.0,0.0,52,0.00,,,0.00,WUHU21623XXSP,2013-06-06 01:27:00,
2013-06-05 21:32:00,64.8,46.7,29.79,NE,45,0.0,0.7,52,0.00,,,0.00,WUHU21623XXSP,2013-06-06 01:32:00,
2013-06-05 21:37:00,64.8,46.7,29.79,NE,45,0.0,0.7,52,0.00,,,0.00,WUHU21623XXSP,2013-06-06 01:37:00,
2013-06-05 21:40:00,64.8,46.8,29.79,NE,45,0.0,0.0,52,0.00,,,0.00,WUHU21623XXSP,2013-06-06 01:40:00,
2013-06-05 21:42:00,64.6,47.0,29.79,NE,45,0.0,0.0,53,0.00,,,0.00,WUHU21623XXSP,2013-06-06 01:42:00,
2013-06-05 21:47:00,64.6,47.0,29.79,NE,45,0.0,0.0,53,0.00,,,0.00,WUHU21623XXSP,2013-06-06 01:47:00,
2013-06-05 21:52:00,64.2,46.6,29.79,NE,45,0.9,0.9,53,0.00,,,0.00,WUHU21623XXSP,2013-06-06 01:52:00,
2013-06-05 21:57:00,64.2,46.6,29.80,NE,45,0.0,0.9,53,0.00,,,0.00,WUHU21623XXSP,2013-06-06 01:57:00,
2013-06-05 22:02:00,64.0,46.5,29.80,NE,45,0.0,0.0,53,0.00,,,0.00,WUHU21623XXSP,2013-06-06 02:02:00,
2013-06-05 22:07:00,64.0,46.9,29.80,NE,45,0.0,0.0,54,0.00,,,0.00,WUHU21623XXSP,2013-06-06 02:07:00,
2013-06-05 22:12:00,64.0,46.9,29.80,NE,45,1.0,1.3,54,0.00,,,0.00,WUHU21623XXSP,2013-06-06 02:12:00,
2013-06-05 22:17:00,63.7,47.1,29.80,NE,45,1.0,1.3,55,0.00,,,0.00,WUHU21623XXSP,2013-06-06 02:17:00,
2013-06-05 22:22:00,63.5,47.4,29.80,NE,45,0.0,1.1,56,0.00,,,0.00,WUHU21623XXSP,2013-06-06 02:22:00,
2013-06-05 22:27:00,63.3,47.3,29.81,NE,45,0.0,0.0,56,0.00,,,0.00,WUHU21623XXSP,2013-06-06 02:27:00,
2013-06-05 22:32:00,63.1,47.1,29.81,NE,45,1.0,1.1,56,0.00,,,0.00,WUHU21623XXSP,2013-06-06 02:32:00,
2013-06-05 22:37:00,63.1,47.1,29.81,NE,45,1.1,1.8,56,0.00,,,0.00,WUHU21623XXSP,2013-06-06 02:37:00,
2013-06-05 22:40:00,63.0,47.6,29.80,NE,45,0.0,0.0,57,0.00,,,0.00,WUHU21623XXSP,2013-06-06 02:40:00,
2013-06-05 22:42:00,63.0,47.4,29.80,NE,45,0.9,1.8,57,0.00,,,0.00,WUHU21623XXSP,2013-06-06 02:42:00,
2013-06-05 22:47:00,62.8,47.3,29.81,NNE,22,1.2,1.3,57,0.00,,,0.00,WUHU21623XXSP,2013-06-06 02:47:00,
2013-06-05 22:52:00,62.4,46.9,29.81,NNE,22,0.0,1.3,57,0.00,,,0.00,WUHU21623XXSP,2013-06-06 02:52:00,
2013-06-05 22:57:00,62.4,47.4,29.81,NNE,22,0.0,1.1,58,0.00,,,0.00,WUHU21623XXSP,2013-06-06 02:57:00,
2013-06-05 23:02:00,62.4,47.4,29.81,NNE,22,0.0,0.7,58,0.00,,,0.00,WUHU21623XXSP,2013-06-06 03:02:00,
2013-06-05 23:07:00,62.2,47.3,29.81,NNE,22,1.1,1.1,58,0.00,,,0.00,WUHU21623XXSP,2013-06-06 03:07:00,
2013-06-05 23:12:00,62.1,47.1,29.80,NNE,22,0.9,1.1,58,0.00,,,0.00,WUHU21623XXSP,2013-06-06 03:12:00,
2013-06-05 23:17:00,61.9,46.9,29.81,NNE,22,0.0,1.1,58,0.00,,,0.00,WUHU21623XXSP,2013-06-06 03:17:00,
2013-06-05 23:22:00,61.9,46.9,29.80,NNE,22,0.7,2.0,58,0.00,,,0.00,WUHU21623XXSP,2013-06-06 03:22:00,
2013-06-05 23:27:00,61.9,47.4,29.80,NNE,22,0.0,2.0,59,0.00,,,0.00,WUHU21623XXSP,2013-06-06 03:27:00,
2013-06-05 23:32:00,61.7,46.8,29.80,NE,45,0.9,1.1,58,0.00,,,0.00,WUHU21623XXSP,2013-06-06 03:32:00,
2013-06-05 23:37:00,61.7,47.3,29.80,NE,45,0.0,1.1,59,0.00,,,0.00,WUHU21623XXSP,2013-06-06 03:37:00,
2013-06-05 23:40:00,61.7,47.4,29.80,NE,45,0.0,0.0,59,0.00,,,0.00,WUHU21623XXSP,2013-06-06 03:40:00,
2013-06-05 23:42:00,61.7,47.8,29.80,NE,45,0.0,1.1,60,0.00,,,0.00,WUHU21623XXSP,2013-06-06 03:42:00,
2013-06-05 23:47:00,61.5,47.1,29.80,NE,45,0.0,0.9,59,0.00,,,0.00,WUHU21623XXSP,2013-06-06 03:47:00,
2013-06-05 23:52:00,61.5,47.6,29.80,NE,45,0.0,1.6,60,0.00,,,0.00,WUHU21623XXSP,2013-06-06 03:52:00,
2013-06-05 23:57:00,61.5,47.6,29.80,NE,45,1.5,1.8,60,0.00,,,0.00,WUHU21623XXSP,2013-06-06 03:57:00,